Погода в Платаниасе

Греция     39°08′39″N   23°26′19″E
темп.,
°C
ветер,
м/с
пор.,
м/с
влажн.,
%
обл.,
%
осадки,
мм/ч
давл.,
гПа
погр.,
м
7 мая, пт
пт700:00+18ююв447542 0.0 101536
03:00+18ююв337868 0.0 101324
06:00+18з127771 0.0 101315
09:00+18ссв1179100 0.0 101414
12:00+19ссз227380 0.0 101527
15:00+19всв117245 0.0 101335
18:00+20ююв226876 0.0 101224
21:00+20ююв44705 0.0 101123
8 мая, сб
сб800:00+19ю3370100 0.0 100912
03:00+19зсз2276100 0.0 100912
06:00+18ссз4582100 0.0 101054
09:00+18с688166 0.0 1011133
12:00+18ссз81183100 0.0 1012237
15:00+18ссз1215735 0.0 1012258
18:00+18ссз101278100 0.0 1013210
21:00+17св1114875 0.0 1016511
9 мая, вс
вс900:00+16всв11148178 0.0 1019747
03:00+16св8980100 0.1 1021963
06:00+16св997699 0.1 10231032
09:00+16св91070100 0.1 10251004
12:00+15св8971100 0.0 1026959
15:00+16св786990 0.0 10261000
18:00+16св68635 0.0 1025884
21:00+17ссв58595 0.0 1025814
10 мая, пн
пн1000:00+17ссв57624 0.0 10251113
03:00+16ссв88620 0.0 1024779
06:00+16ссв77560 0.0 1024765
09:00+16ссв55530 0.0 1024857
12:00+16св55480 0.0 1025926
15:00+16св45480 0.0 1024762
18:00+16св45500 0.0 1023601
21:00+17с24460 0.0 1022300
11 мая, вт
вт1100:00+17ссв57560 0.0 1022895
03:00+16св99590 0.0 1022783
06:00+16св98600 0.0 1022682
09:00+16св66560 0.0 1022669
12:00+16св55550 0.0 1022655
15:00+16всв55550 0.0 1021542
18:00+16в44545 0.0 1019476
21:00+17ююв225195 0.0 1018244